This demonstration page uses our WeatherBlox Daily Observations layout. Learn more.

Hourly Observations for March 19, 2017

Temp ( °F °C ) Dew Point ( °F °C ) Humidity (%) Winds ( mph kmh ) Pressure ( in mb ) Visibility ( mi km ) Precip ( " mm )
12:15 am 00:15 Clear 52 10.9 32 0 47 47 S 16 26 30.09 1019 10 16.0934 0 0
12:35 am 00:35 Clear 52 11 32 0.2 48 48 S 15 24 30.06 1018 10 16.0934 0 0
12:55 am 00:55 Clear 51 10.6 33 0.6 50 50 S 9 15 30.06 1018 10 16.0934 0 0
1:15 am 01:15 Clear 51 10.5 33 0.7 51 51 S 10 17 30.06 1018 10 16.0934 0 0
1:35 am 01:35 Clear 51 10.7 34 1 51 51 S 12 19 30.06 1018 10 16.0934 0 0
1:55 am 01:55 Clear 51 10.7 34 1.1 52 52 S 9 15 30.06 1018 10 16.0934 0 0
2:15 am 02:15 Clear 51 10.7 34 1 51 51 S 10 17 30.06 1018 10 16.0934 0 0
2:35 am 02:35 Clear 51 10.6 33 0.7 51 51 S 14 22 30.06 1018 10 16.0934 0 0
2:55 am 02:55 Clear 50 10.1 32 0.2 51 51 SSE 10 17 30.03 1017 10 16.0934 0 0
3:15 am 03:15 Clear 49 9.6 32 0 52 52 SSE 9 15 30.03 1017 10 16.0934 0 0
3:35 am 03:35 Clear 49 9.5 32 0 52 52 SSE 10 17 30.03 1017 10 16.0934 0 0
3:55 am 03:55 Clear 50 10.2 32 -0.2 49 49 SSE 14 22 30 1016 10 16.0934 0 0
4:15 am 04:15 Clear 49 9.2 31 -0.3 52 52 SSE 10 17 30 1016 10 16.0934 0 0
4:35 am 04:35 Clear 47 8.6 31 -0.5 53 53 SSE 8 13 30.03 1017 10 16.0934 0 0
4:55 am 04:55 Clear 46 7.5 31 -0.6 57 57 SSE 7 11 30 1016 10 16.0934 0 0
5:15 am 05:15 Clear 45 7.1 31 -0.5 59 59 SSE 6 9 30 1016 10 16.0934 0 0
5:35 am 05:35 Clear 45 7 31 -0.4 60 60 SSE 7 11 30 1016 10 16.0934 0 0
5:55 am 05:55 Clear 46 7.9 32 -0.2 57 57 SSE 8 13 30 1016 10 16.0934 0 0
6:15 am 06:15 Clear 46 8 32 -0.1 57 57 SSE 9 15 30 1016 10 16.0934 0 0
6:35 am 06:35 Clear 46 7.7 32 0 59 59 S 6 9 30 1016 10 16.0934 0 0
6:55 am 06:55 Clear 44 6.8 31 -0.3 61 61 S 6 9 30 1016 10 16.0934 0 0
7:15 am 07:15 Clear 43 6 31 -0.5 63 63 SSE 5 7 30 1016 10 16.0934 0 0
7:35 am 07:35 Clear 42 5.6 31 -0.6 65 65 SSE 6 9 30.03 1017 10 16.0934 0 0
7:55 am 07:55 Sunny 41 5.2 31 -0.5 67 67 SSE 5 7 30.03 1017 10 16.0934 0 0
8:15 am 08:15 Sunny 41 5.1 31 -0.5 67 67 SSE 5 7 30.03 1017 10 16.0934 0 0
8:35 am 08:35 Sunny 42 5.8 32 0 67 67 SSE 5 7 30 1016 10 16.0934 0 0
8:55 am 08:55 Sunny 44 6.8 33 0.3 64 64 S 3 6 30 1016 10 16.0934 0 0
9:15 am 09:15 Sunny 48 9 35 1.6 60 60 S 8 13 29.97 1015 10 16.0934 0 0
9:35 am 09:35 Sunny 52 11.1 37 2.9 57 57 S 9 15 29.97 1015 10 16.0934 0 0
9:55 am 09:55 Sunny 55 12.8 39 4 55 55 SSW 7 11 29.94 1014 10 16.0934 0 0
10:15 am 10:15 Sunny 57 14 40 4.7 54 54 SSW 10 17 29.94 1014 10 16.0934 0 0
10:35 am 10:35 Sunny 59 15.1 43 6.1 55 55 SW 8 13 29.94 1014 10 16.0934 0 0
10:55 am 10:55 Sunny 60 15.7 44 6.4 54 54 WSW 6 9 29.91 1013 10 16.0934 0 0
11:15 am 11:15 Sunny 62 16.7 44 6.9 53 53 SW 3 6 29.88 1012 10 16.0934 0 0
11:35 am 11:35 Sunny 64 17.6 45 7.1 50 50 WNW 5 7 29.88 1012 10 16.0934 0 0
11:55 am 11:55 Sunny 66 18.9 44 6.8 45 45 Calm 29.85 1011 10 16.0934 0 0
12:15 pm 12:15 Sunny 68 19.8 44 6.9 43 43 ENE 3 6 29.85 1011 10 16.0934 0 0
12:35 pm 12:35 Sunny 70 21.3 44 6.8 39 39 Calm 29.85 1011 10 16.0934 0 0
12:55 pm 12:55 Sunny 72 22.3 44 6.6 36 36 Calm 29.85 1011 10 16.0934 0 0
1:15 pm 13:15 Sunny 74 23.5 44 6.5 34 34 Calm 29.83 1010 10 16.0934 0 0
1:35 pm 13:35 Sunny 74 23.6 43 6.2 33 33 Calm 29.8 1009 10 16.0934 0 0
1:55 pm 13:55 Sunny 76 24.5 43 6.2 31 31 SSE 3 6 29.8 1009 10 16.0934 0 0
2:15 pm 14:15 Sunny 78 25.5 43 6.2 29 29 Calm 29.8 1009 10 16.0934 0 0
2:35 pm 14:35 Sunny 80 26.6 43 6 27 27 SW 3 6 29.77 1008 10 16.0934 0 0
2:55 pm 14:55 Sunny 81 27 42 5.4 25 25 Calm 29.74 1007 10 16.0934 0 0
3:15 pm 15:15 Sunny 82 27.6 42 5.4 24 24 Calm 29.74 1007 10 16.0934 0 0
3:35 pm 15:35 Sunny 83 28.5 40 4.2 21 21 W 5 7 29.71 1006 10 16.0934 0 0
3:55 pm 15:55 Sunny 84 28.7 37 3 19 19 W 5 7 29.71 1006 10 16.0934 0 0
4:15 pm 16:15 Sunny 85 29.4 36 2.4 18 18 W 3 6 29.68 1005 10 16.0934 0 0
4:35 pm 16:35 Sunny 86 29.8 32 0.1 15 15 NW 3 6 29.68 1005 10 16.0934 0 0
4:55 pm 16:55 Sunny 86 30.1 31 -0.4 14 14 NNW 5 7 29.68 1005 10 16.0934 0 0
5:15 pm 17:15 Sunny 86 30 31 -0.3 14 14 N 5 7 29.65 1004 10 16.0934 0 0
5:35 pm 17:35 Sunny 86 30.1 31 -0.8 13 13 N 3 6 29.65 1004 10 16.0934 0 0
5:55 pm 17:55 Sunny 84 29 30 -1.3 14 14 Calm 29.65 1004 10 16.0934 0 0
6:15 pm 18:15 Sunny 81 27.4 33 0.6 17 17 E 5 7 29.68 1005 10 16.0934 0 0
6:35 pm 18:35 Sunny 79 26.2 40 4.4 25 25 SSE 8 13 29.71 1006 10 16.0934 0 0
6:55 pm 18:55 Sunny 79 26.1 41 5 26 26 S 7 11 29.71 1006 10 16.0934 0 0
7:15 pm 19:15 Sunny 76 24.7 41 5.2 28 28 S 3 6 29.74 1007 10 16.0934 0 0
7:35 pm 19:35 Sunny 75 23.7 41 5.1 30 30 SSW 5 7 29.77 1008 10 16.0934 0 0
7:55 pm 19:55 Clear 73 22.6 41 5.1 32 32 SSW 3 6 29.77 1008 10 16.0934 0 0
8:15 pm 20:15 Clear 71 21.7 40 4.7 33 33 Calm 29.8 1009 10 16.0934 0 0
8:35 pm 20:35 Clear 71 21.8 39 3.8 31 31 W 3 6 29.8 1009 10 16.0934 0 0
8:55 pm 20:55 Clear 69 20.6 29 -1.8 22 22 WNW 6 9 29.83 1010 10 16.0934 0 0
9:15 pm 21:15 Clear 64 18 26 -3.1 24 24 WNW 7 11 29.85 1011 10 16.0934 0 0
9:35 pm 21:35 Clear 64 17.9 26 -3.5 23 23 WNW 8 13 29.85 1011 10 16.0934 0 0
9:55 pm 21:55 Clear 62 16.5 26 -3.6 25 25 WNW 6 9 29.85 1011 10 16.0934 0 0
10:15 pm 22:15 Clear 61 16 25 -3.9 25 25 WNW 5 7 29.85 1011 10 16.0934 0 0
10:35 pm 22:35 Clear 62 16.5 25 -4 24 24 WNW 7 11 29.85 1011 10 16.0934 0 0
10:55 pm 22:55 Clear 59 14.9 25 -3.9 27 27 WNW 5 7 29.88 1012 10 16.0934 0 0
11:15 pm 23:15 Clear 60 15.7 25 -3.9 26 26 W 7 11 29.85 1011 10 16.0934 0 0
11:35 pm 23:35 Clear 57 13.7 25 -4 29 29 NW 5 7 29.91 1013 10 16.0934 0 0
11:55 pm 23:55 Clear 56 13.6 25 -3.8 30 30 NW 8 13 29.91 1013 10 16.0934 0 0

Powered by AerisWeather